This demonstration page uses our WeatherBlox Daily Observations layout. Learn more.

Hourly Observations for June 10, 2017

Temp ( °F °C ) Dew Point ( °F °C ) Humidity (%) Winds ( mph kmh ) Pressure ( in mb ) Visibility ( mi km ) Precip ( " mm )
12:54 am 00:54 Clear 76 24.4 62 16.7 62 62 S 16 26 29.65 1004 10 16.0934 0 0
1:54 am 01:54 Clear 75 23.9 62 16.7 64 64 S 17 28 29.63 1003 10 16.0934 0 0
2:54 am 02:54 Clear 74 23.3 63 17.2 69 69 S 17 28 29.63 1003 10 16.0934 0 0
3:54 am 03:54 Clear 73 22.8 63 17.2 71 71 S 21 33 29.63 1003 10 16.0934 0 0
4:54 am 04:54 Clear 72 22.2 63 17.2 73 73 S 16 26 29.64 1004 10 16.0934 0 0
5:54 am 05:54 Clear 71 21.7 63 17.2 76 76 S 17 28 29.63 1004 10 16.0934 0 0
6:54 am 06:54 Sunny 71 21.7 64 17.8 79 79 S 18 30 29.62 1003 10 16.0934 0 0
7:54 am 07:54 Sunny 73 22.8 64 17.8 74 74 S 23 37 29.62 1003 10 16.0934 0 0
8:22 am 08:22 Mostly Cloudy 73 22.8 64 17.8 74 74 S 20 31 29.62 1003 10 16.0934 0 0
8:34 am 08:34 Cloudy 73 22.8 64 17.8 74 74 SSW 25 41 29.59 1002 10 16.0934 0 0
8:54 am 08:54 Cloudy 73 22.8 65 18.3 76 76 SSW 17 28 29.62 1003 10 16.0934 0 0
9:54 am 09:54 Mostly Cloudy 76 24.4 66 18.9 72 72 S 17 28 29.61 1003 10 16.0934 0 0
10:03 am 10:03 Mostly Cloudy 77 25 66 18.9 69 69 S 26 43 29.59 1002 10 16.0934 0 0
10:54 am 10:54 Mostly Cloudy 81 27.2 67 19.4 62 62 S 26 43 29.6 1002 10 16.0934 0 0
11:25 am 11:25 Partly Cloudy 82 27.8 68 20 63 63 S 24 39 29.56 1001 10 16.0934 0 0
11:35 am 11:35 Mostly Cloudy 82 27.8 67 19.4 60 60 SSW 29 46 29.56 1001 10 16.0934 0 0
11:54 am 11:54 Mostly Cloudy 83 28.3 67 19.4 59 59 S 23 37 29.61 1003 10 16.0934 0 0
12:02 pm 12:02 Partly Cloudy 84 28.9 67 19.4 57 57 SSW 22 35 29.56 1001 10 16.0934 0 0
12:54 pm 12:54 Mostly Cloudy 84 28.9 68 20 59 59 S 17 28 29.63 1003 10 16.0934 0 0
1:54 pm 13:54 Sunny 88 31.1 68 20 52 52 SSW 17 28 29.61 1003 10 16.0934 0 0
2:54 pm 14:54 Sunny 90 32.2 68 20 48 48 S 18 30 29.59 1002 10 16.0934 0 0
3:54 pm 15:54 Sunny 92 33.3 68 20 46 46 SW 18 30 29.58 1002 10 16.0934 0 0
4:54 pm 16:54 Sunny 92 33.3 68 20 46 46 S 23 37 29.57 1001 10 16.0934 0 0
5:54 pm 17:54 Sunny 92 33.3 67 19.4 44 44 SW 18 30 29.57 1002 10 16.0934 0 0
6:54 pm 18:54 Sunny 91 32.8 68 20 47 47 SSW 18 30 29.58 1002 10 16.0934 0 0
7:54 pm 19:54 Partly Cloudy 89 31.7 68 20 50 50 SSW 8 13 29.58 1002 10 16.0934 0 0
8:54 pm 20:54 Partly Cloudy 86 30 70 21.1 59 59 S 14 22 29.59 1002 10 16.0934 0 0
9:54 pm 21:54 Cloudy 85 29.4 70 21.1 61 61 SSE 14 22 29.61 1003 10 16.0934 0 0
10:54 pm 22:54 Partly Cloudy 83 28.3 70 21.1 65 65 S 17 28 29.63 1003 10 16.0934 0 0
11:54 pm 23:54 Mostly Clear 81 27.2 70 21.1 69 69 S 18 30 29.64 1004 10 16.0934 0 0

Powered by AerisWeather